Flag for Greenland Weather past 2 weeks in Nuuk, Greenland

Now
12 °F

Light snow. Mostly cloudy.


Feels Like: 12 °F
Forecast: 12 / 18 °F
Wind: 2 mph from Northeast

Location: Godthaab / Nuuk


UV Index: 0 (Low)

Visibility: 1 mi


Pressure: 29.74 "Hg

Humidity: 85%

Dew point: 9 °F

Location of NuukLocation

Historic Weather in Nuuk

°F

Nuuk temperature yesterday

Maximum temperature yesterday: 18 °F (at 12:50 PM)
Minimum temperature yesterday: 9 °F (at 11:50 PM)
Average temperature yesterday: 14 °F

Past Weeks' High & Low Weather Summary

 TemperatureHumidityPressure
High43 °F (Apr 10, 5:50 AM)100% (Apr 10, 5:50 PM)29.98 "Hg (Apr 10, 5:50 PM)
Low7 °F (Apr 19, 1:50 AM)30% (Apr 9, 9:50 PM)28.50 "Hg (Apr 17, 5:50 AM)
Average19 °F72%29.61 "Hg
* Reported Apr 4 6:50 AM — Apr 19 6:50 AM, Nuuk, Weather by CustomWeather, © 2014

Note: Actual official high and low records may vary slightly from our data, if they occured in-between our weather recording intervals... More about our weather records

Advertising

Historic Weather Conditions — Data for Previous 24 hours

 ConditionsComfort  
Time TempWeatherWind HumidityBarometerVisibility
6:50 AM
Apr 19
10 °FLight snow. Partly sunny.2 mph92%29.71 "Hg2 mi
6:20 AM10 °FSleet. Passing clouds.No wind85%29.71 "Hg3 mi
5:50 AM10 °FLight snow. Passing clouds.2 mph85%29.71 "HgN/A
5:20 AM10 °FLight snow. Overcast.5 mph85%29.71 "Hg4 mi
4:50 AM12 °FHeavy snow. Ice fog.1 mph85%29.71 "Hg1 mi
4:20 AM10 °FSnow flurries. Low clouds.1 mph92%29.68 "Hg1 mi
3:50 AM9 °FSnow flurries. Passing clouds.1 mph78%29.68 "HgN/A
3:20 AM9 °FLight snow. Passing clouds.5 mph72%29.68 "HgN/A
2:50 AM10 °FLight snow. Overcast.2 mph79%29.68 "Hg2 mi
2:20 AM9 °FPassing clouds.3 mph78%29.68 "HgN/A
1:50 AM7 °FPassing clouds.3 mph78%29.68 "HgN/A
12:50 AM10 °FSnow flurries. Overcast.2 mph79%29.68 "Hg2 mi
12:20 AM9 °FSleet. Overcast.2 mph85%29.68 "Hg3 mi
11:50 PM
Apr 18
9 °FLight snow. Partly cloudy.2 mph85%29.68 "Hg4 mi
11:20 PM10 °FSnow. Passing clouds.1 mph85%29.68 "Hg1 mi
10:50 PM10 °FLight snow. Overcast.1 mph92%29.68 "Hg1 mi
10:20 PM10 °FLight snow. Overcast.No wind92%29.68 "Hg1 mi
9:50 PM10 °FLight snow. Partly sunny.6 mph85%29.68 "Hg1 mi
9:20 PM12 °FLight snow. Partly sunny.6 mph85%29.68 "Hg1 mi
8:50 PM12 °FLight snow. Partly sunny.7 mph85%29.68 "Hg1 mi
8:20 PM12 °FLight snow. Partly sunny.8 mph85%29.65 "Hg2 mi
7:50 PM12 °FLight snow. Partly sunny.10 mph85%29.65 "Hg2 mi
7:20 PM12 °FLight snow. Partly sunny.12 mph85%29.65 "Hg1 mi
6:50 PM14 °FLight snow. Partly sunny.10 mph85%29.65 "Hg2 mi
6:20 PM14 °FLight snow. Partly sunny.13 mph85%29.65 "Hg1 mi
5:50 PM14 °FSnow flurries. Mostly cloudy.13 mph85%29.62 "Hg1 mi
4:50 PM16 °FSnow flurries. Partly sunny.8 mph86%29.62 "Hg1 mi
3:50 PM18 °FSnow flurries. Partly sunny.16 mph86%29.62 "Hg2 mi
2:50 PM16 °FSnow flurries. Overcast.16 mph86%29.62 "Hg2 mi
1:50 PM16 °FSnow flurries. Partly sunny.15 mph93%29.62 "Hg3 mi
12:50 PM18 °FSnow flurries. Mostly cloudy.12 mph79%29.62 "Hg3 mi
11:50 AM16 °FHeavy snow. Ice fog.13 mph93%29.65 "Hg0 mi
10:50 AM16 °FSnow showers. Partly sunny.15 mph86%29.65 "Hg1 mi
9:50 AM16 °FHeavy snow. Ice fog.9 mph86%29.68 "Hg0 mi
8:50 AM14 °FSnow flurries. Partly sunny.10 mph85%29.68 "Hg2 mi
Weather by CustomWeather, © 2014

See weather overview